When you browse on this site, cookies collect data to enhance your experience and personalize the content and advertising you see.
Visit our Privacy Policy to learn more. By continuing to use the site, you agree to this use of cookies and data.
  • In Netherlands
  • List of Countries
  • For 7 days
  • Water Temperature
  • Weather Map
  • Weather Widgets
  • user-avatar
    Login

    Hourly Weather Schoten

    Today, 31 March, Tuesday

    Time Temperature Precipitation Wind Pressure Humidity
    00:00 +2°C° 0 mm 3 mps 771 mmHg 93%
    01:00 +1°C° 0 mm 3 mps 771 mmHg 93%
    02:00 +1°C° 0 mm 3 mps 771 mmHg 94%
    03:00 +1°C° 0 mm 3 mps 770 mmHg 95%
    04:00 0°C° 0 mm 3 mps 771 mmHg 90%
    05:00 -1°C° 0 mm 4 mps 771 mmHg 84%
    06:00 -1°C° 0 mm 4 mps 772 mmHg 78%
    07:00 0°C° 0 mm 4 mps 772 mmHg 70%
    08:00 +2°C° 0 mm 5 mps 772 mmHg 61%
    09:00 +3°C° 0 mm 5 mps 772 mmHg 52%
    10:00 +5°C° 0 mm 5 mps 772 mmHg 49%
    11:00 +7°C° 0 mm 4 mps 772 mmHg 45%
    12:00 +8°C° 0 mm 4 mps 772 mmHg 41%
    13:00 +8°C° 0 mm 4 mps 771 mmHg 40%
    14:00 +8°C° 0 mm 4 mps 771 mmHg 39%
    15:00 +10°C° 0 mm 4 mps 771 mmHg 38%
    16:00 +8°C° 0 mm 3 mps 770 mmHg 42%
    17:00 +7°C° 0 mm 3 mps 770 mmHg 47%
    18:00 +5°C° 0 mm 3 mps 770 mmHg 52%
    19:00 +4°C° 0 mm 3 mps 770 mmHg 55%
    20:00 +3°C° 0 mm 3 mps 770 mmHg 58%
    21:00 +2°C° 0 mm 3 mps 770 mmHg 61%
    22:00 +2°C° 0 mm 3 mps 770 mmHg 64%
    23:00 +2°C° 0 mm 2 mps 770 mmHg 66%

    Tomorrow, 1 April, Wednesday

    Time Temperature Precipitation Wind Pressure Humidity
    00:00 +2°C° 0 mm 2 mps 770 mmHg 69%
    01:00 +1°C° 0 mm 2 mps 769 mmHg 71%
    02:00 +1°C° 0 mm 2 mps 769 mmHg 72%
    03:00 +1°C° 0 mm 1 mps 768 mmHg 74%
    04:00 +1°C° 0 mm 1 mps 768 mmHg 73%
    05:00 +2°C° 0 mm 1 mps 768 mmHg 72%
    06:00 +1°C° 0 mm 0 mps 768 mmHg 72%
    07:00 +4°C° 0 mm 1 mps 767 mmHg 64%
    08:00 +6°C° 0 mm 1 mps 767 mmHg 56%
    09:00 +8°C° 0 mm 1 mps 767 mmHg 49%
    10:00 +9°C° 0 mm 1 mps 766 mmHg 47%
    11:00 +8°C° 0 mm 2 mps 766 mmHg 45%
    12:00 +9°C° 0 mm 2 mps 765 mmHg 44%
    13:00 +9°C° 0 mm 2 mps 765 mmHg 47%
    14:00 +9°C° 0 mm 3 mps 764 mmHg 50%
    15:00 +9°C° 0 mm 3 mps 764 mmHg 54%
    16:00 +8°C° 0 mm 3 mps 764 mmHg 57%
    17:00 +7°C° 0 mm 3 mps 763 mmHg 61%
    18:00 +5°C° 0 mm 3 mps 763 mmHg 64%
    19:00 +5°C° 0 mm 2 mps 763 mmHg 69%
    20:00 +4°C° 0 mm 2 mps 763 mmHg 73%
    21:00 +4°C° 0 mm 2 mps 763 mmHg 77%
    22:00 +3°C° 0 mm 2 mps 763 mmHg 80%
    23:00 +3°C° 0 mm 2 mps 763 mmHg 83%

    Day after tomorrow, 2 April, Thursday

    Time Temperature Precipitation Wind Pressure Humidity
    00:00 +3°C° 0 mm 1 mps 763 mmHg 86%
    01:00 +2°C° 0 mm 2 mps 763 mmHg 87%
    02:00 +2°C° 0 mm 2 mps 762 mmHg 88%
    03:00 +2°C° 0 mm 2 mps 762 mmHg 90%
    04:00 +2°C° 0 mm 2 mps 762 mmHg 89%
    05:00 +2°C° 0 mm 2 mps 762 mmHg 88%
    06:00 +2°C° 0 mm 2 mps 762 mmHg 87%
    07:00 +3°C° 0 mm 3 mps 761 mmHg 78%
    08:00 +5°C° 0 mm 3 mps 761 mmHg 70%
    09:00 +8°C° 0 mm 3 mps 760 mmHg 61%
    10:00 +8°C° 0 mm 3 mps 760 mmHg 59%
    11:00 +8°C° 0 mm 4 mps 760 mmHg 57%
    12:00 +8°C° 0 mm 4 mps 760 mmHg 55%
    13:00 +10°C° 0 mm 4 mps 760 mmHg 56%
    14:00 +10°C° 0 mm 4 mps 759 mmHg 57%
    15:00 +10°C° 0 mm 4 mps 759 mmHg 58%
    16:00 +8°C° 0 mm 4 mps 759 mmHg 62%
    17:00 +8°C° 0 mm 4 mps 758 mmHg 66%
    18:00 +7°C° 0 mm 4 mps 758 mmHg 71%
    19:00 +7°C° 0 mm 4 mps 758 mmHg 76%
    20:00 +6°C° 0 mm 4 mps 758 mmHg 80%
    21:00 +5°C° 0 mm 4 mps 759 mmHg 85%
    22:00 +5°C° 0.1 mm 4 mps 759 mmHg 87%
    23:00 +5°C° 0.1 mm 4 mps 759 mmHg 88%

    3 April, Friday

    Time Temperature Precipitation Wind Pressure Humidity
    00:00 +6°C° 0.1 mm 4 mps 759 mmHg 89%
    01:00 +5°C° 0 mm 4 mps 759 mmHg 90%
    02:00 +5°C° 0 mm 3 mps 759 mmHg 90%
    03:00 +5°C° 0 mm 3 mps 759 mmHg 90%
    04:00 +5°C° 0 mm 3 mps 759 mmHg 90%
    05:00 +4°C° 0 mm 3 mps 760 mmHg 91%
    06:00 +5°C° 0 mm 2 mps 760 mmHg 91%
    07:00 +5°C° 0 mm 3 mps 760 mmHg 82%
    08:00 +7°C° 0 mm 3 mps 761 mmHg 73%
    09:00 +8°C° 0 mm 4 mps 761 mmHg 65%
    10:00 +8°C° 0 mm 4 mps 761 mmHg 61%
    11:00 +9°C° 0 mm 5 mps 762 mmHg 57%
    12:00 +9°C° 0 mm 5 mps 762 mmHg 53%
    13:00 +9°C° 0 mm 5 mps 762 mmHg 53%
    14:00 +8°C° 0 mm 5 mps 762 mmHg 52%
    15:00 +8°C° 0 mm 5 mps 762 mmHg 51%
    16:00 +7°C° 0 mm 4 mps 762 mmHg 55%
    17:00 +7°C° 0 mm 3 mps 763 mmHg 59%
    18:00 +6°C° 0 mm 2 mps 763 mmHg 63%
    19:00 +5°C° 0 mm 2 mps 764 mmHg 66%
    20:00 +5°C° 0 mm 1 mps 764 mmHg 69%
    21:00 +5°C° 0 mm 1 mps 765 mmHg 72%
    22:00 +4°C° 0 mm 1 mps 765 mmHg 73%
    23:00 +4°C° 0 mm 1 mps 765 mmHg 74%

    4 April, Saturday

    Time Temperature Precipitation Wind Pressure Humidity
    00:00 +4°C° 0 mm 1 mps 766 mmHg 75%
    01:00 +4°C° 0 mm 1 mps 766 mmHg 76%
    02:00 +3°C° 0 mm 1 mps 766 mmHg 78%
    03:00 +3°C° 0 mm 1 mps 766 mmHg 79%
    04:00 +2°C° 0 mm 2 mps 766 mmHg 79%
    05:00 +2°C° 0 mm 2 mps 766 mmHg 78%
    06:00 +2°C° 0 mm 2 mps 767 mmHg 78%
    07:00 +3°C° 0 mm 3 mps 767 mmHg 70%
    08:00 +5°C° 0 mm 3 mps 766 mmHg 61%
    09:00 +8°C° 0 mm 3 mps 766 mmHg 53%
    10:00 +9°C° 0 mm 3 mps 766 mmHg 49%
    11:00 +10°C° 0 mm 3 mps 766 mmHg 46%
    12:00 +11°C° 0 mm 3 mps 765 mmHg 43%
    13:00 +13°C° 0 mm 2 mps 765 mmHg 43%
    14:00 +14°C° 0 mm 2 mps 764 mmHg 43%
    15:00 +14°C° 0 mm 2 mps 764 mmHg 43%
    16:00 +13°C° 0 mm 2 mps 764 mmHg 48%
    17:00 +12°C° 0 mm 2 mps 764 mmHg 53%
    18:00 +11°C° 0 mm 1 mps 763 mmHg 58%
    19:00 +10°C° 0 mm 2 mps 764 mmHg 61%
    20:00 +9°C° 0 mm 2 mps 764 mmHg 64%
    21:00 +8°C° 0 mm 3 mps 764 mmHg 67%
    22:00 +7°C° 0 mm 3 mps 764 mmHg 71%
    23:00 +7°C° 0 mm 3 mps 763 mmHg 75%

    5 April, Sunday

    Time Temperature Precipitation Wind Pressure Humidity
    00:00 +7°C° 0 mm 3 mps 763 mmHg 79%
    01:00 +5°C° 0 mm 3 mps 763 mmHg 80%
    02:00 +5°C° 0 mm 3 mps 763 mmHg 81%
    03:00 +5°C° 0 mm 3 mps 762 mmHg 82%
    04:00 +5°C° 0 mm 3 mps 762 mmHg 82%
    05:00 +5°C° 0 mm 3 mps 762 mmHg 82%
    06:00 +5°C° 0 mm 3 mps 762 mmHg 82%
    07:00 +9°C° 0 mm 3 mps 762 mmHg 75%
    08:00 +11°C° 0 mm 3 mps 762 mmHg 67%
    09:00 +13°C° 0 mm 4 mps 762 mmHg 60%
    10:00 +15°C° 0 mm 4 mps 761 mmHg 55%
    11:00 +18°C° 0 mm 4 mps 761 mmHg 51%
    12:00 +20°C° 0 mm 4 mps 761 mmHg 46%
    13:00 +20°C° 0 mm 4 mps 760 mmHg 45%
    14:00 +21°C° 0 mm 5 mps 760 mmHg 44%
    15:00 +21°C° 0 mm 5 mps 759 mmHg 44%
    16:00 +20°C° 0 mm 5 mps 759 mmHg 49%
    17:00 +18°C° 0 mm 4 mps 759 mmHg 54%
    18:00 +17°C° 0 mm 4 mps 758 mmHg 59%
    19:00 +15°C° 0 mm 4 mps 758 mmHg 64%
    20:00 +14°C° 0 mm 4 mps 758 mmHg 68%
    21:00 +13°C° 0 mm 4 mps 758 mmHg 73%
    22:00 +13°C° 0 mm 5 mps 758 mmHg 71%
    23:00 +12°C° 0 mm 5 mps 758 mmHg 69%
    Show more